ELY5257 LLBG-LGMK

Flight info

Callsign ELY5257
Flight time 1h 31m
Altitude 38000
Route SUVAS L53 ANIDE DCT SOTIX UL53 TIPAS UN137 PEROK
Aircraft B738/M-SDE2E3FGHIRWXY/LB1

Departure

Time 2026-04-24 14:43
Airport Ben Gurion International Airport (LLBG)

Arrival

Time 2026-04-24 16:14
Airport Mykonos Island National Airport (LGMK)
Time Latitude Longitude Altitude Speed Heading
2026-04-24 14:19 32.00428 34.87547 115 ft 0 kts 215°
2026-04-24 14:33 32.00431 34.87549 118 ft 3 kts 214°
2026-04-24 14:33 32.00454 34.87563 116 ft 4 kts 195°
2026-04-24 14:33 32.00481 34.87570 117 ft 4 kts 195°
2026-04-24 14:33 32.00504 34.87583 115 ft 4 kts 217°
2026-04-24 14:34 32.00523 34.87604 115 ft 4 kts 233°
2026-04-24 14:34 32.00536 34.87631 114 ft 4 kts 260°
2026-04-24 14:34 32.00534 34.87660 115 ft 3 kts 295°
2026-04-24 14:34 32.00524 34.87681 116 ft 4 kts 315°
2026-04-24 14:35 32.00502 34.87695 116 ft 4 kts 356°
2026-04-24 14:35 32.00476 34.87696 114 ft 3 kts 347°
2026-04-24 14:35 32.00474 34.87697 114 ft 1 kts 346°
2026-04-24 14:37 32.00486 34.87693 116 ft 6 kts 345°
2026-04-24 14:37 32.00545 34.87678 114 ft 12 kts 356°
2026-04-24 14:37 32.00626 34.87723 116 ft 10 kts 32°
2026-04-24 14:38 32.00646 34.87750 116 ft 4 kts 70°
2026-04-24 14:38 32.00616 34.87802 114 ft 14 kts 128°
2026-04-24 14:38 32.00584 34.87921 116 ft 11 kts 49°
2026-04-24 14:38 32.00659 34.87965 118 ft 13 kts 32°
2026-04-24 14:39 32.00751 34.88033 117 ft 17 kts 31°
2026-04-24 14:39 32.00857 34.88110 119 ft 20 kts 32°
2026-04-24 14:39 32.00986 34.88203 120 ft 24 kts 31°
2026-04-24 14:39 32.01125 34.88299 118 ft 23 kts 30°
2026-04-24 14:40 32.01254 34.88398 119 ft 22 kts 36°
2026-04-24 14:40 32.01364 34.88521 121 ft 22 kts 49°
2026-04-24 14:40 32.01425 34.88622 124 ft 24 kts 59°
2026-04-24 14:40 32.01490 34.88810 123 ft 26 kts 76°
2026-04-24 14:41 32.01525 34.89020 128 ft 25 kts 81°
2026-04-24 14:41 32.01593 34.89156 129 ft 19 kts 359°
2026-04-24 14:41 32.01742 34.89116 127 ft 9 kts 300°
2026-04-24 14:41 32.01745 34.89089 128 ft 0 kts 262°
2026-04-24 14:42 32.01739 34.89036 128 ft 31 kts 261°
2026-04-24 14:42 32.01654 34.88484 124 ft 104 kts 260°
2026-04-24 14:43 32.01497 34.87389 147 ft 159 kts 267°
2026-04-24 14:43 32.01347 34.86029 616 ft 182 kts 269°
2026-04-24 14:43 32.01010 34.84439 1013 ft 209 kts 258°
2026-04-24 14:43 32.00631 34.82709 1507 ft 222 kts 261°
2026-04-24 14:44 32.00261 34.80915 2022 ft 235 kts 260°
2026-04-24 14:44 31.99850 34.78939 2273 ft 264 kts 260°
2026-04-24 14:44 31.99404 34.76805 2968 ft 270 kts 257°
2026-04-24 14:44 31.99258 34.74625 3814 ft 268 kts 282°
2026-04-24 14:45 31.99843 34.72530 4622 ft 272 kts 294°
2026-04-24 14:45 32.00514 34.70438 5414 ft 274 kts 292°
2026-04-24 14:45 32.01844 34.66216 7003 ft 276 kts 291°
2026-04-24 14:46 32.02504 34.64084 7782 ft 278 kts 288°
2026-04-24 14:46 32.02829 34.61879 8625 ft 274 kts 272°
2026-04-24 14:46 32.02869 34.60384 9316 ft 271 kts 271°
2026-04-24 14:46 32.02990 34.57415 10201 ft 277 kts 272°
2026-04-24 14:47 32.03106 34.55065 10412 ft 300 kts 272°
2026-04-24 14:47 32.03226 34.52536 10630 ft 320 kts 271°
2026-04-24 14:47 32.03371 34.49829 10795 ft 340 kts 273°
2026-04-24 14:47 32.03530 34.46962 10939 ft 360 kts 273°
2026-04-24 14:48 32.03692 34.43976 11267 ft 371 kts 273°
2026-04-24 14:48 32.03864 34.40918 11814 ft 373 kts 273°
2026-04-24 14:48 32.04042 34.37856 12433 ft 376 kts 273°
2026-04-24 14:48 32.04221 34.34752 12924 ft 382 kts 272°
2026-04-24 14:49 32.04401 34.31609 13484 ft 386 kts 273°
2026-04-24 14:49 32.04580 34.28468 14041 ft 389 kts 272°
2026-04-24 14:49 32.04762 34.25282 14632 ft 391 kts 273°
2026-04-24 14:49 32.05332 34.22127 15161 ft 399 kts 290°
2026-04-24 14:50 32.06667 34.19233 15779 ft 403 kts 298°
2026-04-24 14:50 32.08127 34.16434 16329 ft 406 kts 298°
2026-04-24 14:50 32.09619 34.13583 16884 ft 409 kts 298°
2026-04-24 14:50 32.11111 34.10701 17408 ft 413 kts 298°
2026-04-24 14:51 32.12606 34.07781 17962 ft 416 kts 297°
2026-04-24 14:51 32.14097 34.04844 18436 ft 419 kts 297°
2026-04-24 14:51 32.15595 34.01885 18923 ft 421 kts 297°
2026-04-24 14:51 32.17093 33.98906 19422 ft 422 kts 296°
2026-04-24 14:52 32.18475 33.95855 19913 ft 422 kts 293°
2026-04-24 14:52 32.19773 33.92732 20418 ft 423 kts 292°
2026-04-24 14:52 32.21038 33.89585 20896 ft 425 kts 291°
2026-04-24 14:52 32.22289 33.86458 21332 ft 428 kts 291°
2026-04-24 14:53 32.23571 33.83271 21750 ft 430 kts 292°
2026-04-24 14:53 32.24870 33.80068 22168 ft 433 kts 292°
2026-04-24 14:53 32.26180 33.76860 22583 ft 435 kts 292°
2026-04-24 14:53 32.27500 33.73642 22985 ft 437 kts 292°
2026-04-24 14:54 32.28834 33.70398 23371 ft 439 kts 292°
2026-04-24 14:54 32.30173 33.67140 23694 ft 441 kts 292°
2026-04-24 14:54 32.31524 33.63850 23935 ft 445 kts 292°
2026-04-24 14:54 32.32864 33.60587 24249 ft 447 kts 292°
2026-04-24 14:55 32.34224 33.57271 24588 ft 448 kts 292°
2026-04-24 14:55 32.35585 33.53951 24941 ft 448 kts 291°
2026-04-24 14:55 32.36951 33.50614 25262 ft 449 kts 291°
2026-04-24 14:55 32.38314 33.47280 25540 ft 451 kts 291°
2026-04-24 14:56 32.39681 33.43930 25804 ft 454 kts 291°
2026-04-24 14:56 32.41039 33.40604 26062 ft 455 kts 291°
2026-04-24 14:56 32.42419 33.37217 26341 ft 457 kts 291°
2026-04-24 14:56 32.43797 33.33834 26700 ft 456 kts 291°
2026-04-24 14:57 32.45172 33.30457 27122 ft 454 kts 291°
2026-04-24 14:57 32.46539 33.27098 27597 ft 452 kts 291°
2026-04-24 14:57 32.47900 33.23747 27997 ft 450 kts 291°
2026-04-24 14:57 32.49258 33.20400 28378 ft 450 kts 291°
2026-04-24 14:58 32.50611 33.17062 28781 ft 449 kts 291°
2026-04-24 14:58 32.51959 33.13733 29255 ft 447 kts 291°
2026-04-24 14:58 32.53296 33.10429 29770 ft 444 kts 291°
2026-04-24 14:58 32.54629 33.07132 30179 ft 442 kts 291°
2026-04-24 14:59 32.55954 33.03849 30495 ft 442 kts 291°
2026-04-24 14:59 32.57280 33.00559 30802 ft 442 kts 291°
2026-04-24 14:59 32.58587 32.97316 31137 ft 441 kts 291°
2026-04-24 14:59 32.59908 32.94034 31494 ft 439 kts 290°
2026-04-24 15:00 32.61221 32.90769 31829 ft 438 kts 290°
2026-04-24 15:00 32.62532 32.87508 32199 ft 437 kts 290°
2026-04-24 15:00 32.63832 32.84272 32635 ft 433 kts 290°
2026-04-24 15:00 32.65129 32.81039 32951 ft 433 kts 289°
2026-04-24 15:01 32.66424 32.77805 33193 ft 434 kts 289°
2026-04-24 15:01 32.67719 32.74567 33454 ft 434 kts 289°
2026-04-24 15:01 32.69013 32.71333 33778 ft 433 kts 289°
2026-04-24 15:01 32.70304 32.68102 34081 ft 432 kts 289°
2026-04-24 15:02 32.71590 32.64884 34350 ft 431 kts 289°
2026-04-24 15:02 32.72871 32.61671 34641 ft 430 kts 289°
2026-04-24 15:02 32.74143 32.58483 35072 ft 424 kts 289°
2026-04-24 15:02 32.75383 32.55371 35437 ft 421 kts 289°
2026-04-24 15:03 32.76634 32.52222 35624 ft 422 kts 289°
2026-04-24 15:03 32.77888 32.49061 35769 ft 424 kts 289°
2026-04-24 15:03 32.79145 32.45894 36003 ft 423 kts 289°
2026-04-24 15:03 32.80399 32.42736 36284 ft 421 kts 289°
2026-04-24 15:04 32.81678 32.39608 36536 ft 422 kts 293°
2026-04-24 15:04 32.83240 32.36628 36719 ft 427 kts 298°
2026-04-24 15:04 32.84933 32.33716 36917 ft 428 kts 299°
2026-04-24 15:04 32.86648 32.30820 37071 ft 429 kts 299°
2026-04-24 15:05 32.88373 32.27911 37250 ft 429 kts 299°
2026-04-24 15:05 32.90086 32.25007 37491 ft 428 kts 299°
2026-04-24 15:05 32.91782 32.22111 37731 ft 426 kts 299°
2026-04-24 15:05 32.93472 32.19207 37903 ft 426 kts 299°
2026-04-24 15:06 32.95162 32.16288 37902 ft 429 kts 299°
2026-04-24 15:06 32.98538 32.10437 37908 ft 427 kts 299°
2026-04-24 15:07 33.01866 32.04658 37936 ft 425 kts 299°
2026-04-24 15:07 33.05198 31.98862 37917 ft 423 kts 299°
2026-04-24 15:08 33.08516 31.93081 37916 ft 422 kts 299°
2026-04-24 15:08 33.11827 31.87303 37917 ft 422 kts 299°
2026-04-24 15:09 33.15117 31.81552 37920 ft 423 kts 299°
2026-04-24 15:09 33.18438 31.75739 37926 ft 425 kts 299°
2026-04-24 15:10 33.21770 31.69898 37919 ft 427 kts 299°
2026-04-24 15:10 33.25112 31.64029 37919 ft 428 kts 299°
2026-04-24 15:11 33.28443 31.58172 37918 ft 429 kts 299°
2026-04-24 15:11 33.31803 31.52255 37921 ft 430 kts 299°
2026-04-24 15:12 33.35164 31.46325 37926 ft 431 kts 299°
2026-04-24 15:12 33.40201 31.37423 37925 ft 430 kts 298°
2026-04-24 15:13 33.43525 31.31537 37922 ft 429 kts 298°
2026-04-24 15:13 33.46862 31.25616 37933 ft 429 kts 298°
2026-04-24 15:14 33.50195 31.19694 37939 ft 428 kts 298°
2026-04-24 15:14 33.53518 31.13779 37926 ft 428 kts 298°
2026-04-24 15:15 33.56811 31.07909 37922 ft 427 kts 298°
2026-04-24 15:15 33.60115 31.02009 37924 ft 426 kts 298°
2026-04-24 15:16 33.63416 30.96105 37937 ft 426 kts 298°
2026-04-24 15:16 33.66711 30.90202 37926 ft 426 kts 298°
2026-04-24 15:17 33.69979 30.84337 37932 ft 425 kts 298°
2026-04-24 15:17 33.73267 30.78429 37936 ft 426 kts 298°
2026-04-24 15:18 33.76555 30.72510 37923 ft 426 kts 298°
2026-04-24 15:18 33.79845 30.66578 37928 ft 426 kts 298°
2026-04-24 15:19 33.83110 30.60680 37937 ft 427 kts 298°
2026-04-24 15:19 33.86398 30.54733 37921 ft 427 kts 298°
2026-04-24 15:20 33.89688 30.48772 37918 ft 428 kts 298°
2026-04-24 15:20 33.92975 30.42807 37932 ft 428 kts 298°
2026-04-24 15:21 33.96244 30.36863 37937 ft 429 kts 297°
2026-04-24 15:21 33.99534 30.30874 37929 ft 428 kts 297°
2026-04-24 15:22 34.02814 30.24891 37925 ft 428 kts 297°
2026-04-24 15:23 34.07721 30.15923 37925 ft 427 kts 297°
2026-04-24 15:23 34.12587 30.07006 37932 ft 426 kts 297°
2026-04-24 15:25 34.20254 29.93155 37936 ft 425 kts 298°
2026-04-24 15:26 34.29178 29.77501 37930 ft 424 kts 298°
2026-04-24 15:27 34.39143 29.59850 37935 ft 424 kts 298°
2026-04-24 15:29 34.49106 29.42116 37916 ft 425 kts 298°
2026-04-24 15:31 34.60670 29.21420 37938 ft 424 kts 298°
2026-04-24 15:33 34.73847 28.97691 37940 ft 424 kts 298°
2026-04-24 15:34 34.82037 28.82862 37938 ft 423 kts 297°
2026-04-24 15:35 34.90220 28.67984 37941 ft 422 kts 297°
2026-04-24 15:36 34.93462 28.62071 37947 ft 422 kts 297°
2026-04-24 15:36 34.98334 28.53120 37941 ft 422 kts 296°
2026-04-24 15:37 35.01572 28.47154 37937 ft 422 kts 296°
2026-04-24 15:37 35.04825 28.41183 37939 ft 422 kts 296°
2026-04-24 15:38 35.08039 28.35243 37958 ft 422 kts 296°
2026-04-24 15:38 35.10761 28.30234 37945 ft 423 kts 297°
2026-04-24 15:39 35.14560 28.23276 37940 ft 424 kts 297°
2026-04-24 15:39 35.17278 28.18274 37925 ft 425 kts 296°
2026-04-24 15:40 35.21085 28.11206 37940 ft 427 kts 296°
2026-04-24 15:40 35.24332 28.05181 37951 ft 428 kts 297°
2026-04-24 15:41 35.27060 28.00128 37936 ft 429 kts 297°
2026-04-24 15:41 35.30899 27.92997 37935 ft 429 kts 296°
2026-04-24 15:42 35.34181 27.86880 37945 ft 430 kts 296°
2026-04-24 15:42 35.37432 27.80793 37939 ft 430 kts 296°
2026-04-24 15:43 35.40710 27.74654 37933 ft 430 kts 296°
2026-04-24 15:43 35.43988 27.68523 37935 ft 430 kts 296°
2026-04-24 15:44 35.47275 27.62389 37937 ft 430 kts 296°
2026-04-24 15:44 35.50530 27.56294 37943 ft 430 kts 296°
2026-04-24 15:45 35.53796 27.50157 37934 ft 429 kts 297°
2026-04-24 15:45 35.56513 27.45057 37950 ft 429 kts 297°
2026-04-24 15:46 35.60316 27.37867 37939 ft 429 kts 297°
2026-04-24 15:46 35.63542 27.31708 37947 ft 429 kts 297°
2026-04-24 15:47 35.66760 27.25597 37936 ft 428 kts 297°
2026-04-24 15:47 35.69993 27.19456 37937 ft 428 kts 297°
2026-04-24 15:48 35.73232 27.13315 37932 ft 428 kts 296°
2026-04-24 15:48 35.76464 27.07159 37940 ft 429 kts 297°
2026-04-24 15:49 35.79707 27.00978 37939 ft 430 kts 297°
2026-04-24 15:49 35.82927 26.94825 37963 ft 431 kts 297°
2026-04-24 15:50 35.85593 26.89633 37934 ft 430 kts 293°
2026-04-24 15:50 35.87340 26.85193 37527 ft 435 kts 290°
2026-04-24 15:50 35.88632 26.81826 37011 ft 434 kts 291°
2026-04-24 15:51 35.90198 26.78630 36419 ft 439 kts 302°
2026-04-24 15:51 35.92200 26.75758 35759 ft 445 kts 307°
2026-04-24 15:51 35.94509 26.73223 34998 ft 457 kts 317°
2026-04-24 15:51 35.96292 26.71722 34529 ft 461 kts 319°
2026-04-24 15:52 35.99877 26.68874 33539 ft 464 kts 319°
2026-04-24 15:52 36.02605 26.66734 32779 ft 464 kts 320°
2026-04-24 15:52 36.04405 26.65317 32278 ft 464 kts 319°
2026-04-24 15:52 36.08043 26.62440 31278 ft 464 kts 319°
2026-04-24 15:53 36.10761 26.60278 30537 ft 465 kts 319°
2026-04-24 15:53 36.12564 26.58839 30017 ft 466 kts 319°
2026-04-24 15:53 36.16220 26.55904 28772 ft 469 kts 320°
2026-04-24 15:53 36.18923 26.53727 27887 ft 470 kts 321°
2026-04-24 15:54 36.21666 26.51519 26969 ft 471 kts 321°
2026-04-24 15:54 36.24418 26.49300 26023 ft 472 kts 322°
2026-04-24 15:54 36.27173 26.47077 25148 ft 473 kts 322°
2026-04-24 15:54 36.29910 26.44870 24492 ft 467 kts 322°
2026-04-24 15:55 36.32623 26.42680 23803 ft 463 kts 323°
2026-04-24 15:55 36.35307 26.40512 23040 ft 459 kts 323°
2026-04-24 15:55 36.37965 26.38361 22298 ft 453 kts 323°
2026-04-24 15:55 36.40589 26.36237 21623 ft 447 kts 323°
2026-04-24 15:56 36.43146 26.34163 20947 ft 442 kts 323°
2026-04-24 15:56 36.45705 26.32085 20286 ft 437 kts 323°
2026-04-24 15:56 36.48236 26.30028 19634 ft 433 kts 323°
2026-04-24 15:56 36.50743 26.27988 18990 ft 428 kts 323°
2026-04-24 15:57 36.53225 26.25968 18353 ft 425 kts 323°
2026-04-24 15:57 36.55683 26.23957 17623 ft 422 kts 323°
2026-04-24 15:57 36.57248 26.22535 17106 ft 419 kts 319°
2026-04-24 15:57 36.60089 26.19224 16094 ft 416 kts 314°
2026-04-24 15:58 36.62129 26.16692 15425 ft 412 kts 314°
2026-04-24 15:58 36.64119 26.14212 14783 ft 408 kts 313°
2026-04-24 15:58 36.66120 26.11732 14156 ft 404 kts 313°
2026-04-24 15:58 36.68112 26.09281 13579 ft 398 kts 314°
2026-04-24 15:59 36.70085 26.06867 12826 ft 397 kts 314°
2026-04-24 15:59 36.72047 26.04477 12185 ft 393 kts 314°
2026-04-24 15:59 36.73994 26.02109 11560 ft 389 kts 314°
2026-04-24 15:59 36.75914 25.99773 11178 ft 381 kts 314°
2026-04-24 16:00 36.77775 25.97509 11014 ft 366 kts 314°
2026-04-24 16:00 36.79565 25.95325 10857 ft 354 kts 314°
2026-04-24 16:00 36.81272 25.93238 10716 ft 343 kts 314°
2026-04-24 16:00 36.82880 25.91268 10579 ft 333 kts 314°
2026-04-24 16:01 36.84516 25.89266 10447 ft 324 kts 314°
2026-04-24 16:01 36.86109 25.87321 10314 ft 316 kts 314°
2026-04-24 16:01 36.87664 25.85421 10176 ft 309 kts 315°
2026-04-24 16:01 36.89180 25.83569 10050 ft 301 kts 315°
2026-04-24 16:02 36.90660 25.81764 9934 ft 294 kts 316°
2026-04-24 16:02 36.92102 25.80018 9901 ft 284 kts 315°
2026-04-24 16:02 36.93521 25.78276 9374 ft 290 kts 315°
2026-04-24 16:02 36.94944 25.76523 8996 ft 285 kts 315°
2026-04-24 16:03 36.96338 25.74808 8706 ft 278 kts 316°
2026-04-24 16:03 36.97697 25.73137 8422 ft 271 kts 316°
2026-04-24 16:03 36.99023 25.71503 8137 ft 264 kts 316°
2026-04-24 16:03 37.00321 25.69910 7864 ft 258 kts 316°
2026-04-24 16:04 37.01588 25.68350 7607 ft 253 kts 316°
2026-04-24 16:04 37.02826 25.66825 7368 ft 248 kts 316°
2026-04-24 16:04 37.04059 25.65309 7125 ft 249 kts 317°
2026-04-24 16:04 37.05309 25.63779 6897 ft 256 kts 319°
2026-04-24 16:05 37.07853 25.60677 6364 ft 252 kts 319°
2026-04-24 16:05 37.09088 25.59165 6090 ft 244 kts 318°
2026-04-24 16:06 37.11375 25.56346 5656 ft 218 kts 319°
2026-04-24 16:06 37.12423 25.55051 5451 ft 206 kts 319°
2026-04-24 16:06 37.14410 25.52602 5059 ft 195 kts 319°
2026-04-24 16:07 37.15377 25.51409 4859 ft 196 kts 320°
2026-04-24 16:07 37.16333 25.50231 4664 ft 192 kts 320°
2026-04-24 16:07 37.18173 25.47953 4251 ft 179 kts 321°
2026-04-24 16:08 37.19042 25.46876 4151 ft 171 kts 322°
2026-04-24 16:08 37.20918 25.45060 3826 ft 178 kts 359°
2026-04-24 16:09 37.23272 25.44752 3576 ft 168 kts 354°
2026-04-24 16:09 37.24429 25.44515 3524 ft 170 kts 354°
2026-04-24 16:09 37.25199 25.44360 3515 ft 168 kts 354°
2026-04-24 16:09 37.26654 25.43800 3300 ft 162 kts 342°
2026-04-24 16:10 37.29664 25.42145 2827 ft 152 kts 342°
2026-04-24 16:11 37.31280 25.41267 2597 ft 154 kts 342°
2026-04-24 16:11 37.32596 25.40554 2399 ft 153 kts 341°
2026-04-24 16:11 37.33566 25.40028 2229 ft 151 kts 341°
2026-04-24 16:12 37.35475 25.39001 1894 ft 150 kts 342°
2026-04-24 16:12 37.36408 25.38503 1740 ft 141 kts 342°
2026-04-24 16:12 37.38132 25.37586 1382 ft 128 kts 343°
2026-04-24 16:13 37.38956 25.37148 1209 ft 128 kts 342°
2026-04-24 16:13 37.40500 25.36161 914 ft 123 kts 339°
2026-04-24 16:14 37.42088 25.35451 580 ft 125 kts 342°
2026-04-24 16:14 37.42895 25.35097 413 ft 118 kts 342°
2026-04-24 16:14 37.43489 25.34839 401 ft 1 kts 343°
2026-04-24 16:15 37.43494 25.34837 401 ft 5 kts 342°
2026-04-24 16:15 37.43656 25.34701 405 ft 5 kts 227°
2026-04-24 16:16 37.43599 25.34667 406 ft 0 kts 186°
2026-04-24 16:16 37.43598 25.34667 406 ft 0 kts 184°
2026-04-24 16:17 37.43541 25.34681 407 ft 2 kts 230°
2026-04-24 16:17 37.43529 25.34653 407 ft 2 kts 254°
2026-04-24 16:18 37.43527 25.34645 408 ft 0 kts 253°